Terminal Aerodrome Forecast
Issued by NWS

Home | Current Version | Previous Version | Text Only | Print | Product List | Glossary On
Versions: 1 2 3 4 5 6 7 8 9 10 11 12 13 14 15 16 17 18 19 20 21 22 23 24 25 26 27 28 29 30 31 32 33
000
FTPA31 PHFO 281000 AAB
TAFMKK
TAF AMD
PHMK 281006Z 2810/2906 02008KT P6SM VCSH SCT022 BKN050
      TEMPO 2810/2814 BKN018
     FM282000 02015KT P6SM SCT030 BKN050
     FM290200 02010KT P6SM SCT030 BKN050=

USA.gov is the U.S. government's official web portal to all federal, state and local government web resources and services.